Погода в Ульяновке

Украина / Кировоградская область     48°35′28″N   33°27′55″E
темп.,
°C
ветер,
м/с
пор.,
м/с
влажн.,
%
обл.,
%
осадки,
мм/ч
давл.,
гПа
погр.,
м
2 июля, сб
сб200:00+18ссв46640 0.0 101798
03:00+16св49765 0.0 1018163
06:00+15всв49765 0.0 1019267
09:00+19св66515 0.0 1021790
12:00+22св56340 0.0 10211376
15:00+24ссв55280 0.0 10211653
18:00+23ссв56330 0.0 10201606
21:00+17ссв46560 0.0 102175
3 июля, вс
вс300:00+15св23680 0.0 102220
03:00+14ссв23710 0.0 102119
06:00+14с23720 0.0 102146
09:00+21с34511 0.0 1021725
12:00+25ссв343721 0.0 10201552
15:00+27с343283 0.0 10191943
18:00+26с443698 0.0 10181829
21:00+20с3353100 0.0 101933
4 июля, пн
пн400:00+19ссв235494 0.0 101918
03:00+17всв22635 0.0 101911
06:00+18с11655 0.0 101911
09:00+24ссз22465 0.0 1019591
12:00+28ссв33360 0.0 10191580
15:00+30ссв33333 0.0 10172339
18:00+30ссв333344 0.0 10172486
21:00+23всв33570 0.0 101828
5 июля, вт
вт500:00+21в22600 0.0 101811
03:00+20всв22660 0.0 101811
06:00+20всв22666 0.0 101821
09:00+27всв234626 0.0 1018554
12:00+30всв33332 0.0 10182390
15:00+32св33293 0.0 10172837
18:00+31ссв433038 0.0 10161966
21:00+25всв46465 0.0 101680
6 июля, ср
ср600:00+23вюв410550 0.0 1017178
03:00+21вюв34575 0.0 101752
06:00+21ююв22610 0.0 101724
09:00+27юв33430 0.0 1016488
12:00+31юв32330 0.0 10162320
15:00+33в32272 0.0 10152888
18:00+32вюв43275 0.0 10142065
21:00+26юв483221 0.0 1014113